Location: Big Creek Census Designated Place
(37.2036°N, 119.2485°W)
Time: 07:25:04
(UTC+00:00)

Daily predictions for brighter satellites

Satellite Brightness Start Highest point End
(mag) Time Altitude Azimuth Time Altitude Azimuth Time Altitude Azimuth
Cosmos 1092 Rocket 3.8 12:35:07 61° N 12:36:20 89° E 12:42:28 10° S
Cosmos 1844 Rocket 4.1 12:31:48 10° S 12:36:52 37° ESE 12:41:56 10° NE
Okean O Rocket 4.1 12:40:40 10° NE 12:44:03 21° E 12:47:26 10° SE
Cosmos 371 Rocket 3.8 12:41:27 10° S 12:46:11 59° ESE 12:50:58 10° NNE
Okean 1-7 4.4 12:48:34 29° S 12:48:34 29° S 12:50:44 10° S
H-2A R/B 3.2 12:47:42 23° S 12:48:03 23° SSE 12:53:40 10° ESE
Cosmos 1110 Rocket 4.4 12:43:02 10° S 12:48:08 62° ESE 12:53:15 10° NNE
ALOS 3.6 12:46:46 10° NNE 12:51:09 40° E 12:55:31 10° SSE
USA 238 DEB 4.0 12:46:26 10° SSW 12:52:56 62° ESE 12:59:39 10° NE
USA 238 4.1 12:46:34 10° SSW 12:53:03 61° ESE 12:59:45 10° NE
SKYMED 2 4.3 12:53:26 10° SSE 12:57:37 50° ENE 13:00:17 21° N
Hubble Space Telescope 3.2 13:00:55 12° SSW 13:02:38 15° SSE 13:05:03 10° SE
Cosmos 1943 3.4 13:03:22 48° WSW 13:03:22 48° WSW 13:08:34 10° S
Cosmos 1428 Rocket 4.4 13:02:09 10° N 13:08:29 82° W 13:14:46 10° S
Okean 3 4.0 13:09:37 14° N 13:13:06 58° E 13:17:16 10° SSE
Cosmos 2180 Rocket 4.4 13:13:25 10° S 13:19:32 86° E 13:25:44 10° N
Meteor 1-18 Rocket 4.3 13:18:37 26° NNW 13:21:32 53° W 13:26:58 10° S
Cosmos 1741 Rocket 4.1 13:24:08 32° NW 13:26:13 52° WSW 13:31:15 10° S
Cosmos 2026 Rocket 4.2 13:23:59 12° NNW 13:29:31 47° W 13:35:29 10° SSW
GEOS 3 Rocket 4.1 13:25:23 10° SE 13:30:20 55° NE 13:34:41 14° NNW
Cosmos 44 Rocket 3.4 13:26:20 10° SSW 13:31:14 74° ESE 13:36:03 10° NNE
Helios 1A Rocket 3.0 13:32:14 10° NNE 13:36:17 75° ESE 13:40:17 10° S
FALCON 9 R/B 4.0 13:32:10 23° W 13:37:39 75° S 14:08:02 10° ESE
Cosmos 2279 Rocket 4.1 13:31:46 10° SSW 13:37:46 52° W 13:43:50 10° N
Cosmos 1666 4.4 13:34:34 10° SSE 13:38:04 35° E 13:41:33 10° NNE
PAYLOAD B 4.1 13:33:10 10° N 13:38:42 74° WNW 13:44:14 10° SSW
Cosmos 304 Rocket 3.7 13:34:11 10° SSW 13:38:57 87° ESE 13:43:45 10° NNE
ATLAS 3B R/B 3.9 13:33:24 10° S 13:39:43 43° ESE 13:45:57 10° NE
Meteor 1-11 Rocket 3.9 13:34:29 10° S 13:40:14 83° E 13:46:09 10° N
Cosmos 405 3.4 13:37:21 10° N 13:40:51 64° E 13:44:19 10° SSE
USA 234 3.7 13:35:58 10° NNE 13:41:58 40° NNW 13:46:24 18° W
PSLV R/B 4.0 13:42:09 24° SSW 13:42:09 24° SSW 13:44:06 10° SSE
Cosmos 1302 Rocket 4.0 13:37:37 10° SSW 13:42:54 87° WNW 13:48:14 10° NNE
NOSS 3-2 (C) 3.5 13:38:13 10° SSW 13:43:51 78° ESE 13:50:08 10° NE
Meteor 1-5 Rocket 4.2 13:38:09 10° SSW 13:44:04 76° W 13:49:54 10° N
COSMO-SKYMED 1 2.9 13:41:29 10° S 13:45:37 43° W 13:48:50 16° NNW
Cosmos 2278 Rocket 4.0 13:46:17 10° SSE 13:51:21 35° ESE 13:56:25 10° NE
Meteor 2-4 Rocket 3.6 13:49:02 10° NNW 13:54:21 58° W 13:59:34 10° S
Cosmos 1733 Rocket 3.3 13:51:18 10° SSW 13:55:23 43° W 13:59:32 10° N
GPS 2-04 Rocket1 2.8 13:58:08 16° WSW 14:01:09 69° S 14:05:11 10° E
NOAA 6 4.1 13:57:54 10° N 14:02:55 56° WNW 14:07:55 10° SSW
SL-24 R/B 4.0 13:59:50 10° SSE 14:04:12 86° WSW 14:08:26 10° NNW
FENGYUN 3A 4.1 14:02:35 10° N 14:07:31 38° WNW 14:12:25 10° SW
EP 3 3.7 14:11:36 10° SW 14:13:49 52° WNW 14:15:51 10° NNE
SMAP 3.2 14:11:02 10° NNE 14:15:42 79° ESE 14:20:20 10° S
ERBS 4.3 14:14:32 10° S 14:17:31 32° SE 14:20:30 10° ENE
Cosmos 1743 3.9 14:14:42 10° SSE 14:18:19 45° E 14:21:59 10° NNE
Cosmos 1992 Rocket 4.3 14:13:30 10° S 14:18:39 73° ESE 14:23:51 10° NNE
H-2A R/B 2.7 14:16:04 10° N 14:19:51 84° WNW 14:23:40 10° SSW
Okean O Rocket 2.4 14:16:32 10° N 14:20:23 30° WNW 14:24:15 10° SW
Cosmos 1844 Rocket 3.5 14:16:02 10° WSW 14:20:46 28° WNW 14:25:32 10° N
Geosat 4.5 14:18:24 10° S 14:23:08 42° WSW 14:27:54 10° NW
ATLAS CENTAUR R/B 1.5 14:21:01 10° NNW 14:25:06 67° ENE 14:28:51 10° SE
CZ-4 R/B 4.1 14:23:39 10° NE 14:26:51 23° E 14:30:04 10° SSE
IRS-1C Rocket 4.1 14:22:18 10° NNE 14:27:34 84° WNW 14:32:49 10° SSW
ALOS 3.6 14:25:01 10° NNW 14:28:15 19° WNW 14:31:28 10° WSW
Cosmos 1536 3.7 14:25:35 10° SW 14:29:10 29° WNW 14:32:44 10° NNW
Cosmos 1674 Rocket 4.2 14:25:48 10° NNW 14:29:44 35° W 14:33:38 10° SSW
NOSS 3-2 (A) 4.1 14:26:18 10° WSW 14:31:25 32° NW 14:37:06 10° NNE
Cosmos 1782 Rocket 3.6 14:27:33 10° S 14:31:59 88° W 14:36:24 10° N
Cosmos 1844 4.5 14:27:00 10° WSW 14:32:02 30° WNW 14:37:03 10° N
Cosmos 1975 Rocket 3.9 14:28:26 10° N 14:32:50 57° E 14:37:15 10° SSE
YAOGAN 6 4.2 14:29:50 10° NNE 14:33:23 42° E 14:36:53 10° S
